Salida, CO

2:47 PM MST on December 16, 2017 (GMT -0700)
Salida

Weather History for KANK - May, 2013

Change the Weather History Date:

Tuesday, May 14, 2013

  Actual Average (KGUC) Record (KGUC)
Temperature  
Mean Temperature 63 °F -  
Max Temperature 79 °F 62 °F 71 °F (2013)
Min Temperature 47 °F 30 °F 19 °F (2004)
Degree Days  
Heating Degree Days 2    
Growing Degree Days 13 (Base 50)    
Moisture  
Dew Point 37 °F    
Average Humidity 47    
Maximum Humidity 71    
Minimum Humidity 12    
Precipitation  
Precipitation 0.00 in - - ()
Sea Level Pressure  
Sea Level Pressure 30.30 in    
Wind  
Wind Speed 6 mph (WNW)    
Max Wind Speed 15 mph    
Max Gust Speed 28 mph    
Visibility 10 miles    
Events      
Averages and records for this station are not official NWS values.
T = Trace of Precipitation, MM = Missing Value Source: NWS Daily Summary

Daily Weather History Graph

Daily Weather History Graph

Search for Another Location

Airport or City:

Trip Planner

Search our weather history database for the weather conditions in past years. The results will help you decide how hot, cold, wet, or windy it might be!

Date:

Astronomy

May. 14, 2013 Rise Set
Actual Time 5:53 AM MDT 8:08 PM MDT
Civil Twilight 5:23 AM MDT 8:38 PM MDT
Nautical Twilight 4:46 AM MDT 9:14 PM MDT
Astronomical Twilight 4:06 AM MDT 9:55 PM MDT
Moon 9:35 AM MDT (5/14) 11:57 PM MDT (5/14)
Length of Visible Light 15h 14m
Length of Day
14h 15m
Waxing Crescent, 19% of the Moon is Illuminated
May 14
Waxing Crescent
May 17
First Quarter
May 24
Full
May 31
Last Quarter
Jun 8
New

Hourly Weather History & Observations

Time (MDT) Temp. Dew Point Humidity Pressure Visibility Wind Dir Wind Speed Gust Speed Precip Events Conditions
12:15 AM 54.5 °F 35.6 °F 49% 30.38 in 10.0 mi Calm Calm - N/A   Clear
12:35 AM 55.0 °F 35.6 °F 48% 30.37 in 10.0 mi West 4.6 mph - N/A   Clear
12:55 AM 55.8 °F 34.9 °F 45% 30.37 in 10.0 mi NW 10.4 mph - N/A   Clear
1:15 AM 55.4 °F 34.7 °F 46% 30.37 in 10.0 mi NW 6.9 mph - N/A   Clear
1:35 AM 54.1 °F 34.7 °F 48% 30.37 in 10.0 mi West 5.8 mph - N/A   Clear
1:55 AM 53.2 °F 34.7 °F 49% 30.36 in 10.0 mi NW 10.4 mph - N/A   Clear
2:15 AM 53.4 °F 35.6 °F 51% 30.36 in 10.0 mi WNW 9.2 mph - N/A   Clear
2:35 AM 52.9 °F 35.6 °F 52% 30.35 in 10.0 mi NW 12.7 mph - N/A   Clear
2:55 AM 51.6 °F 36.0 °F 55% 30.35 in 10.0 mi WNW 9.2 mph - N/A   Clear
3:15 AM 52.0 °F 35.6 °F 54% 30.35 in 10.0 mi NW 9.2 mph - N/A   Clear
3:35 AM 51.6 °F 35.6 °F 54% 30.35 in 10.0 mi WNW 9.2 mph - N/A   Clear
3:55 AM 50.9 °F 35.6 °F 56% 30.35 in 10.0 mi NW 8.1 mph - N/A   Clear
4:15 AM 49.6 °F 35.6 °F 59% 30.35 in 10.0 mi NW 6.9 mph - N/A   Clear
4:35 AM 49.1 °F 35.6 °F 60% 30.35 in 10.0 mi WNW 8.1 mph - N/A   Clear
4:55 AM 49.5 °F 35.2 °F 58% 30.35 in 10.0 mi NW 11.5 mph - N/A   Clear
5:15 AM 48.4 °F 35.1 °F 60% 30.35 in 10.0 mi WNW 5.8 mph - N/A   Clear
5:35 AM 49.1 °F 34.9 °F 58% 30.35 in 10.0 mi NW 9.2 mph - N/A   Clear
5:55 AM 48.2 °F 34.9 °F 60% 30.35 in 10.0 mi NW 10.4 mph - N/A   Clear
6:15 AM 47.1 °F 34.7 °F 62% 30.35 in 10.0 mi NW 5.8 mph - N/A   Clear
6:35 AM 48.2 °F 35.1 °F 60% 30.35 in 10.0 mi NNW 8.1 mph - N/A   Clear
6:55 AM 48.4 °F 34.9 °F 60% 30.36 in 10.0 mi NW 8.1 mph - N/A   Clear
7:15 AM 49.5 °F 35.1 °F 58% 30.36 in 10.0 mi NW 10.4 mph - N/A   Clear
7:35 AM 51.4 °F 34.9 °F 53% 30.35 in 10.0 mi NW 8.1 mph - N/A   Clear
7:55 AM 52.7 °F 35.1 °F 51% 30.35 in 10.0 mi NNW 5.8 mph - N/A   Clear
8:15 AM 54.7 °F 36.1 °F 50% 30.35 in 10.0 mi Calm Calm - N/A   Clear
8:35 AM 56.8 °F 36.1 °F 46% 30.35 in 10.0 mi NNW 3.5 mph - N/A   Clear
8:55 AM 59.4 °F 35.2 °F 40% 30.34 in 10.0 mi Calm Calm - N/A   Clear
9:15 AM 61.9 °F 35.8 °F 38% 30.34 in 10.0 mi Calm Calm - N/A   Clear
9:35 AM 63.5 °F 36.0 °F 36% 30.33 in 10.0 mi Calm Calm - N/A   Clear
9:55 AM 65.5 °F 35.2 °F 33% 30.32 in 10.0 mi NE 4.6 mph - N/A   Clear
10:15 AM 66.7 °F 34.3 °F 30% 30.31 in 10.0 mi Calm Calm - N/A   Clear
10:35 AM 69.8 °F 34.5 °F 27% 30.30 in 10.0 mi Calm Calm - N/A   Clear
10:55 AM 72.5 °F 35.1 °F 25% 30.29 in 10.0 mi NNE 3.5 mph - N/A   Clear
11:15 AM 74.7 °F 31.1 °F 20% 30.28 in 10.0 mi SE 4.6 mph - N/A   Clear
11:35 AM 76.1 °F 27.9 °F 17% 30.27 in 10.0 mi Calm Calm - N/A   Clear
11:55 AM 75.4 °F 27.1 °F 17% 30.25 in 10.0 mi NW 3.5 mph - N/A   Clear
12:15 PM 75.6 °F 23.4 °F 14% 30.24 in 10.0 mi Calm Calm - N/A   Clear
12:35 PM 78.1 °F 23.5 °F 13% 30.23 in 10.0 mi North 5.8 mph - N/A   Clear
12:55 PM 79.3 °F 22.8 °F 12% 30.22 in 10.0 mi Calm Calm - N/A   Clear
1:15 PM 77.5 °F 22.5 °F 13% 30.21 in 10.0 mi SSW 3.5 mph - N/A   Clear
1:35 PM 74.1 °F 29.7 °F 19% 30.22 in 10.0 mi NE 8.1 mph 18.4 mph N/A   Mostly Cloudy
1:55 PM 71.4 °F 39.2 °F 31% 30.23 in 7.0 mi Calm Calm - N/A   Overcast
2:15 PM 65.5 °F 39.6 °F 39% 30.24 in 10.0 mi SSW 12.7 mph 18.4 mph N/A   Overcast
2:35 PM 63.0 °F 40.8 °F 44% 30.23 in 10.0 mi SW 12.7 mph 17.3 mph N/A   Overcast
2:55 PM 64.6 °F 39.6 °F 40% 30.24 in 10.0 mi SW 15.0 mph 27.6 mph N/A   Overcast
3:15 PM 66.2 °F 38.5 °F 36% 30.26 in 10.0 mi NNE 12.7 mph 18.4 mph N/A   Overcast
3:35 PM 64.4 °F 40.3 °F 41% 30.29 in 10.0 mi West 11.5 mph - N/A   Overcast
3:55 PM 62.8 °F 42.1 °F 47% 30.30 in 10.0 mi East 5.8 mph - N/A   Overcast
4:15 PM 61.5 °F 41.9 °F 49% 30.30 in 10.0 mi ESE 10.4 mph 16.1 mph N/A   Overcast
4:35 PM 60.6 °F 41.4 °F 49% 30.30 in 10.0 mi SE 6.9 mph - N/A   Scattered Clouds
4:55 PM 59.9 °F 41.0 °F 50% 30.30 in 10.0 mi Calm Calm - N/A   Scattered Clouds
5:15 PM 59.9 °F 42.1 °F 52% 30.30 in 10.0 mi Calm Calm - N/A   Mostly Cloudy
5:35 PM 59.4 °F 42.4 °F 54% 30.29 in 10.0 mi Calm Calm - N/A   Overcast
5:55 PM 59.4 °F 43.5 °F 56% 30.27 in 10.0 mi SW 8.1 mph - N/A   Overcast
6:15 PM 60.3 °F 42.3 °F 51% 30.27 in 10.0 mi WNW 5.8 mph - N/A   Overcast
6:35 PM 59.9 °F 42.8 °F 53% 30.26 in 10.0 mi North 5.8 mph - N/A   Overcast
6:55 PM 60.3 °F 42.6 °F 52% 30.26 in 10.0 mi Calm Calm - N/A   Overcast
7:15 PM 59.0 °F 44.1 °F 58% 30.26 in 10.0 mi Calm Calm - N/A   Scattered Clouds
7:35 PM 58.6 °F 44.8 °F 60% 30.26 in 10.0 mi Calm Calm - N/A   Scattered Clouds
7:55 PM 58.1 °F 45.7 °F 63% 30.27 in 10.0 mi Calm Calm - N/A   Mostly Cloudy
8:15 PM 57.4 °F 45.1 °F 64% 30.27 in 10.0 mi WSW 3.5 mph - N/A   Mostly Cloudy
8:35 PM 57.2 °F 44.1 °F 62% 30.27 in 10.0 mi SW 6.9 mph - N/A   Scattered Clouds
8:55 PM 56.8 °F 44.6 °F 64% 30.27 in 10.0 mi SW 6.9 mph - N/A   Mostly Cloudy
9:15 PM 57.2 °F 43.3 °F 60% 30.28 in 10.0 mi SW 6.9 mph - N/A   Mostly Cloudy
9:35 PM 57.4 °F 43.0 °F 59% 30.28 in 10.0 mi West 3.5 mph - N/A   Scattered Clouds
10:15 PM 57.2 °F 43.2 °F 59% 30.28 in 10.0 mi SW 6.9 mph - N/A   Overcast
10:35 PM 56.8 °F 42.3 °F 58% 30.27 in 10.0 mi SW 10.4 mph - N/A   Mostly Cloudy
10:55 PM 56.8 °F 42.1 °F 58% 30.27 in 10.0 mi SSW 6.9 mph - N/A   Mostly Cloudy
11:15 PM 55.9 °F 43.0 °F 62% 30.27 in 10.0 mi Calm Calm - N/A   Overcast
11:35 PM 54.5 °F 44.4 °F 69% 30.27 in 10.0 mi SSE 4.6 mph - N/A   Mostly Cloudy
11:55 PM 53.4 °F 44.1 °F 71% 30.27 in 10.0 mi South 3.5 mph - N/A   Mostly Cloudy